Theta_e
345 346 344 345 344 343 341 340 339 341 340 340 343 343 343 342 342 342 339 339 341 342 341 339 339 340 340 338 339 337 336 338 338 339 339 338 339 339 338 333 332 332 337
344 346 342 344 345 344 341 340 339 340 340 341 343 344 343 342 341 341 340 340 340 340 340 337 339 340 339 339 338 336 336 328 333 335 336 337 337 338 337 337 338 338 338
343 345 343 343 344 343 341 340 340 340 339 340 340 343 343 342 342 341 340 339 337 337 337 341 339 338 337 336 335 335 333 329 329 332 335 337 337 337 336 336 336 338 338
343 345 344 341 342 343 340 338 338 339 341 340 340 340 342 342 342 342 338 339 337 336 335 338 336 333 331 329 329 331 332 328 326 322 328 331 332 333 335 335 336 336 335
343 344 344 341 341 341 340 339 338 337 338 340 340 341 341 342 341 340 339 338 336 334 333 333 334 329 328 329 331 331 331 327 324 323 324 327 328 331 332 332 333 332 332
343 343 344 342 341 341 340 339 338 337 337 338 338 338 339 340 338 339 337 335 332 330 330 331 329 327 329 333 331 330 325 324 331 334 335 333 330 334 333 330 330 330 330
343 343 343 341 341 341 339 338 338 338 337 337 338 339 340 338 338 338 336 334 331 328 328 329 328 327 331 330 330 332 332 332 334 333 331 332 330 332 334 333 332 331 334
343 343 343 341 340 340 341 337 336 336 337 337 337 337 339 340 338 336 334 333 330 329 329 330 329 330 330 327 326 327 327 328 329 331 332 331 328 333 333 333 333 333 333
343 343 343 342 342 340 339 340 336 335 338 337 338 336 338 339 337 335 333 332 330 328 328 329 330 332 331 330 325 323 324 326 330 332 332 330 329 328 331 333 333 333 332
337 341 342 342 342 342 341 339 339 335 337 337 337 335 335 336 335 333 332 329 328 327 327 327 328 331 331 329 325 323 322 323 327 330 328 328 327 328 331 330 331 330 330
323 327 336 340 341 341 341 340 338 337 336 337 337 335 335 335 333 331 330 328 327 326 325 326 328 328 326 326 325 322 321 324 327 327 327 324 324 326 327 327 328 328 327
319 320 322 326 335 340 340 341 340 339 338 338 337 336 335 335 333 329 327 326 326 325 325 326 329 328 325 325 322 322 322 323 324 324 325 323 323 325 325 323 324 324 324
317 317 318 319 323 331 340 340 339 338 338 337 337 337 335 335 331 328 327 325 325 325 325 329 327 326 327 324 324 323 323 323 322 322 323 321 325 325 324 324 323 321 320
318 318 316 317 318 324 329 336 337 339 338 338 337 336 334 332 331 329 326 325 325 325 325 329 326 327 326 324 323 322 321 322 322 322 323 323 325 324 323 323 322 323 322
317 317 316 316 318 319 326 328 336 339 338 338 337 336 333 332 331 330 327 325 325 325 326 329 326 326 323 322 322 322 322 321 322 321 321 322 321 323 323 322 324 323 322
315 316 317 317 317 318 322 327 332 339 339 337 336 336 333 331 331 330 328 325 324 326 326 328 323 323 322 323 322 322 322 322 322 322 322 323 320 322 321 324 324 322 321
315 316 316 316 314 317 320 325 328 331 335 338 336 335 333 331 330 329 328 326 325 325 326 326 323 323 322 322 322 322 322 322 321 321 320 322 321 321 321 324 322 321 320
314 314 315 315 316 316 320 326 328 329 331 333 335 335 334 332 330 329 328 326 324 325 326 325 323 323 323 323 323 322 321 321 320 320 321 319 320 320 319 322 321 322 324
318 315 315 315 316 317 319 326 327 328 329 331 331 333 332 332 331 329 327 326 324 325 325 324 323 322 323 323 322 321 320 320 319 319 318 319 319 320 321 320 321 320 319
319 316 315 315 316 318 321 326 326 327 327 329 329 330 332 330 330 329 328 325 324 325 324 323 322 322 322 323 321 320 319 319 319 318 318 318 321 321 321 321 319 316 316
319 318 318 316 316 319 323 324 323 325 327 327 328 328 328 328 329 328 327 327 323 324 324 323 322 321 322 321 318 316 316 316 318 318 318 317 320 321 319 319 317 315 313
314 317 317 317 318 321 321 322 324 325 326 326 326 326 326 327 329 329 327 325 324 323 323 321 320 319 319 319 319 315 313 311 312 315 316 316 317 318 317 315 314 313 311
308 310 316 315 316 316 318 320 321 322 320 321 323 325 326 325 327 327 326 325 325 322 322 320 319 318 316 316 319 318 314 317 310 308 313 315 314 311 313 311 312 313 308
306 308 312 316 315 315 315 316 318 320 320 320 320 321 323 323 324 325 325 325 323 322 321 319 319 319 317 316 317 318 317 315 316 310 307 312 313 311 311 312 308 310 305
301 304 310 313 317 316 316 316 317 317 317 317 318 319 319 320 320 322 323 323 323 322 321 319 318 318 318 316 316 317 313 314 316 315 314 309 311 310 309 308 305 302 300
297 299 300 306 307 311 316 316 316 317 316 316 317 317 318 318 319 319 320 321 321 321 320 319 319 318 318 317 316 317 314 312 313 313 313 313 311 309 308 305 303 300 299
Wind_Speed
11 17 19 20 19 19 20 19 17 19 21 19 18 18 18 18 18 17 17 16 14 11 13 10 11 16 18 16 16 14 14 13 14 15 16 14 14 15 14 16 16 14 14
13 18 21 20 20 20 20 19 20 19 22 20 18 18 18 18 17 16 15 16 15 13 11 10 15 16 16 16 15 14 13 12 14 16 19 19 18 17 16 13 14 15 17
11 19 20 20 20 21 20 20 19 20 21 19 18 18 17 17 16 16 18 17 16 13 10 11 13 12 12 12 12 13 12 13 14 15 16 13 13 14 16 17 17 17 17
11 17 19 21 21 21 21 21 20 19 21 21 18 18 18 17 16 17 18 17 16 14 12 11 11 9 8 10 11 12 12 14 14 13 11 10 10 10 11 12 12 13 13
11 14 16 21 22 22 21 21 22 21 21 21 20 19 17 17 17 18 17 14 11 12 14 14 11 6 10 11 11 13 13 15 15 12 11 11 9 9 9 9 10 11 12
11 12 15 19 21 21 22 21 21 22 22 21 20 19 19 18 18 19 16 12 11 11 14 16 12 10 14 13 14 12 13 15 14 13 14 13 12 10 10 9 11 12 14
11 11 12 17 19 20 20 22 22 22 22 21 20 21 20 19 17 16 15 11 12 12 14 14 14 16 16 15 16 16 15 15 16 17 14 10 9 11 10 11 13 15 16
12 11 11 15 17 19 20 21 22 25 24 23 21 19 19 19 19 17 13 10 14 16 14 15 15 17 18 17 15 14 14 15 14 14 10 14 16 13 11 13 14 16 19
11 10 11 12 14 16 19 21 21 25 24 23 23 19 19 20 19 16 14 12 14 14 13 16 16 15 17 19 17 14 9 10 10 9 12 16 15 11 9 13 17 19 18
10 11 12 13 14 15 17 20 22 22 23 23 24 20 19 18 16 14 12 14 17 14 15 17 18 15 16 18 19 15 11 10 9 10 12 11 13 11 11 12 14 16 17
9 10 11 14 15 16 16 18 22 23 23 23 24 22 21 16 14 13 14 16 15 15 17 18 19 17 15 14 14 12 11 14 12 9 9 13 10 10 8 10 12 13 13
14 12 12 12 14 16 17 17 19 21 23 23 24 25 22 18 16 15 15 17 16 15 18 22 17 18 16 15 15 14 12 13 12 10 8 7 8 10 8 9 10 11 10
17 14 13 13 14 15 18 18 17 21 23 25 26 25 24 19 17 17 15 17 15 17 19 17 18 17 16 19 15 15 13 12 8 8 9 9 12 11 10 10 9 8 9
22 22 20 20 21 18 18 19 20 19 21 23 25 24 30 24 19 18 17 18 18 19 20 19 18 19 18 20 16 18 15 11 9 9 11 12 13 12 13 11 12 13 13
23 23 22 21 23 23 20 20 19 21 21 22 24 25 33 30 23 21 19 19 19 20 20 19 18 19 19 15 15 20 15 13 10 9 11 13 12 11 12 13 12 13 14
23 22 23 21 22 21 21 21 19 19 21 22 24 25 33 28 26 25 21 20 20 20 21 20 18 21 21 17 16 17 16 14 12 10 11 13 13 14 14 13 14 14 12
19 18 18 22 27 23 21 21 19 18 21 23 23 25 27 35 29 29 25 22 21 20 21 20 21 20 23 18 17 17 16 14 12 12 13 12 13 14 13 14 14 13 14
14 17 18 17 21 26 21 20 18 17 18 23 27 26 27 27 34 31 27 26 23 22 23 23 22 22 22 20 18 17 15 14 13 13 12 15 14 13 14 14 13 15 15
9 12 14 15 19 23 23 19 17 15 17 18 26 28 26 27 26 30 29 27 27 25 24 23 23 22 22 22 19 16 14 14 15 13 16 16 16 15 16 14 14 15 14
4 4 8 11 15 17 18 16 14 15 17 19 25 28 30 25 26 25 33 27 26 24 26 24 23 22 23 21 18 16 12 13 14 15 14 15 17 17 17 19 15 13 9
5 5 2 6 11 16 17 17 13 16 17 22 21 22 26 25 23 26 22 34 31 27 24 25 26 28 21 23 18 11 10 7 12 13 12 14 18 18 18 19 17 12 11
11 8 6 5 8 12 12 12 9 15 13 17 21 21 24 23 22 25 24 27 35 34 25 28 22 22 20 26 16 14 3 3 6 10 12 12 17 20 20 17 15 13 11
15 13 8 5 6 7 8 9 8 10 8 10 16 23 25 23 21 23 26 25 33 34 31 38 32 29 15 21 18 13 3 4 6 6 11 13 14 15 19 16 14 15 12
15 14 11 7 5 5 7 8 8 9 9 10 13 19 23 24 24 25 27 26 27 32 33 33 40 39 29 24 15 22 18 10 7 4 8 14 15 14 19 19 14 16 14
21 20 18 12 9 4 5 6 8 7 7 7 12 13 16 18 22 24 26 26 31 33 34 35 35 36 37 34 30 25 11 13 17 10 7 11 16 17 15 16 14 14 16
25 27 26 21 22 17 4 3 5 6 8 10 10 12 15 20 20 22 23 25 29 34 35 36 38 41 37 34 38 31 27 17 15 13 7 20 18 19 18 16 16 16 18
Wind_Direction
162 170 168 167 163 163 164 161 158 163 164 162 155 154 154 152 151 151 146 140 133 140 147 161 176 142 141 140 126 120 115 113 106 111 117 116 117 122 115 113 108 117 113
170 174 174 175 166 167 165 166 164 160 168 165 163 161 162 157 157 154 149 144 139 130 120 120 122 129 128 126 129 128 126 132 124 113 108 102 103 105 104 114 121 116 111
165 173 175 181 173 171 170 169 168 167 168 171 173 168 167 165 162 162 157 148 141 139 135 121 120 118 125 135 136 138 142 142 137 129 112 110 100 102 110 110 103 99 100
158 172 176 184 183 180 179 173 173 175 173 172 170 174 174 171 170 164 161 149 149 147 147 147 131 135 138 141 140 140 141 151 148 139 132 130 115 107 111 117 112 109 106
172 175 180 191 188 188 187 183 181 180 182 180 179 181 177 178 172 162 153 157 162 155 161 162 162 161 147 146 144 137 139 146 145 134 140 134 124 113 120 126 122 117 114
176 176 190 189 189 189 190 189 188 182 184 185 186 184 179 179 167 157 161 172 167 161 166 164 168 173 146 139 136 140 135 138 129 132 126 124 120 110 131 120 127 121 115
165 172 186 190 193 195 193 192 191 189 188 185 186 183 177 173 169 168 177 174 165 153 152 168 174 166 154 146 132 124 126 137 126 127 127 119 129 120 108 129 120 122 123
172 173 182 197 200 204 200 199 196 195 194 191 190 185 178 173 169 171 180 177 172 164 167 173 180 168 158 153 146 136 127 125 128 124 117 123 124 117 103 113 134 130 120
179 185 192 195 204 206 208 206 205 199 198 194 192 186 182 176 175 172 178 188 169 170 177 178 178 172 171 166 157 167 147 138 130 130 128 120 115 125 106 104 105 108 106
191 200 201 203 204 205 209 211 208 205 203 198 192 187 180 177 180 179 185 182 175 173 177 175 176 170 160 165 163 159 181 169 159 136 126 124 118 124 114 103 100 96 96
200 196 201 206 210 211 211 212 212 210 207 203 197 191 181 178 181 191 188 182 178 181 182 182 171 172 171 165 160 152 161 175 168 156 146 137 142 136 121 116 105 108 107
211 209 209 211 213 213 215 215 211 212 210 205 199 192 191 191 192 185 181 179 184 188 179 175 177 172 166 159 161 167 163 163 171 175 146 141 134 165 145 146 120 117 115
222 221 220 227 230 219 217 217 215 213 209 207 203 195 190 185 184 182 180 178 180 182 179 178 174 181 174 162 161 172 170 162 168 180 173 173 146 138 135 139 140 145 153
234 241 246 243 238 229 222 219 218 215 211 206 202 193 188 180 182 188 184 184 183 183 184 181 178 188 177 170 172 184 174 174 164 154 163 163 153 156 146 142 143 136 129
244 246 250 243 227 224 221 220 216 213 212 210 203 195 195 193 185 189 189 186 187 186 186 185 177 180 172 168 180 186 184 183 178 170 171 170 168 158 155 159 144 140 136
244 245 241 232 227 224 219 216 213 211 210 212 205 198 198 193 189 185 188 190 190 190 189 187 178 179 171 179 181 184 188 188 187 178 170 172 169 171 168 154 153 147 143
244 244 241 235 228 222 218 215 213 212 212 209 205 205 200 203 197 190 186 191 192 192 190 187 180 181 183 181 186 188 187 191 192 183 181 166 173 171 162 170 156 166 161
257 247 242 231 224 215 213 207 207 208 208 213 210 203 204 201 205 199 190 190 191 191 191 188 180 176 187 186 185 186 187 186 186 183 178 185 175 172 181 167 169 181 153
270 256 239 223 217 213 207 202 202 203 206 211 217 215 206 202 199 205 201 197 189 187 190 189 185 181 183 189 183 180 183 183 183 180 188 189 188 184 175 171 170 138 132
331 270 243 222 211 205 197 191 194 197 202 211 219 222 217 205 201 201 205 199 190 192 188 187 182 182 181 186 174 169 177 182 186 186 184 189 188 184 177 174 166 156 182
36 35 62 204 198 187 184 179 186 191 199 208 215 218 223 214 201 201 204 210 195 193 192 191 184 172 180 175 153 141 155 183 187 186 184 188 191 188 182 186 177 162 158
31 37 57 116 156 177 184 192 185 192 201 208 211 215 221 213 203 200 201 203 202 195 192 183 179 173 173 175 175 159 155 176 207 193 191 188 190 187 182 179 181 169 166
21 14 37 92 134 155 162 168 154 158 176 196 210 218 220 221 208 208 210 201 205 197 190 187 184 178 171 184 194 179 157 192 149 215 202 197 191 191 191 185 188 194 184
18 20 29 61 109 161 175 178 181 193 201 214 218 224 226 225 227 224 213 213 203 198 194 190 193 190 181 188 206 214 212 180 184 179 214 203 203 201 202 199 194 197 192
27 22 26 48 59 127 161 180 185 199 211 212 221 225 229 226 223 224 216 218 206 204 197 195 192 189 192 188 191 195 226 204 205 196 191 194 206 207 202 201 196 195 198
30 30 29 33 38 52 75 168 186 203 215 215 212 214 222 228 220 215 211 210 208 204 204 201 201 200 197 197 191 197 202 195 197 200 212 196 204 203 202 202 199 198 202